Tracking 29892 objects as of 21-Nov-2024
HD Live streaming from Space Station
objects crossing your sky now

NOAA 16 DEB

Track NOAA 16 DEB now!
10-day predictions


NORAD ID: 41712
Int'l Code: 2000-055PS
Perigee: 748.2 km
Apogee: 797.2 km
Inclination: 98.8 °
Period: 100.1 minutes
Semi major axis: 7143 km
RCS: Unknown
Launch date: September 21, 2000
Source: United States (US)
Launch site: AIR FORCE WESTERN TEST RANGE (AFWTR)

Note: This is SATELLITE DEBRIS
Your satellite tracking list
Your tracking list is empty




NASA's NSSDC Master Catalog

Two Line Element Set (TLE):
1 41712U 00055PS  24325.51694782  .00019360  00000-0  63719-2 0  9990
2 41712  98.8428  66.9794 0034335   6.8709 353.2941 14.37868693443929
Source of the keplerian elements: AFSPC